contact:dominique.lefevre@mio.osupytheas.fr, maurice.libes@osupytheas.fr, didier.mallarino@osupytheas.fr
Project:EMSO http://www.emso-fr.org/EMSO-France
Depth: 2436.0 m
Title:EMSO Ligure Ouest : Data MII capteur MICROCAT
DateTime_Computer,Latitude,Longitude,Temperature,Conductivity,Pressure,DateTime_Instrument
DateTime_Computer,Latitude,Longitude,degC,S m-1,dbar,DateTime_Instrument
2021-10-31T00:00:10Z,42.805,6.029,13.3020,4.60056,2470.427,2021-10-31T02:01:35Z
2021-10-31T00:03:14Z,42.805,6.029,13.3039,4.60061,2470.46,2021-10-31T02:04:38Z
2021-10-31T00:06:17Z,42.805,6.029,13.3025,4.60041,2470.46,2021-10-31T02:07:41Z
2021-10-31T00:09:20Z,42.805,6.029,13.3005,4.60035,2470.437,2021-10-31T02:10:44Z
2021-10-31T00:12:23Z,42.805,6.029,13.3006,4.60038,2470.45,2021-10-31T02:13:48Z
2021-10-31T00:15:26Z,42.805,6.029,13.3011,4.60025,2470.45,2021-10-31T02:16:51Z
2021-10-31T00:18:29Z,42.805,6.029,13.3056,4.60037,2470.437,2021-10-31T02:19:54Z
2021-10-31T00:21:32Z,42.805,6.029,13.3025,4.60052,2470.413,2021-10-31T02:22:57Z
2021-10-31T00:24:35Z,42.805,6.029,13.3030,4.60051,2470.413,2021-10-31T02:26:00Z
2021-10-31T00:27:39Z,42.805,6.029,13.3019,4.60082,2470.437,2021-10-31T02:29:03Z
2021-10-31T00:30:42Z,42.805,6.029,13.3026,4.60054,2470.46,2021-10-31T02:32:06Z
2021-10-31T00:33:45Z,42.805,6.029,13.3036,4.60051,2470.413,2021-10-31T02:35:09Z
2021-10-31T00:36:48Z,42.805,6.029,13.3011,4.60055,2470.474,2021-10-31T02:38:13Z
2021-10-31T00:39:51Z,42.805,6.029,13.3023,4.60056,2470.437,2021-10-31T02:41:16Z
2021-10-31T00:42:54Z,42.805,6.029,13.3031,4.60029,2470.45,2021-10-31T02:44:19Z
2021-10-31T00:45:57Z,42.805,6.029,13.3029,4.60067,2470.437,2021-10-31T02:47:22Z
2021-10-31T00:49:00Z,42.805,6.029,13.3029,4.60064,2470.427,2021-10-31T02:50:25Z
2021-10-31T00:52:03Z,42.805,6.029,13.3026,4.60044,2470.46,2021-10-31T02:53:28Z
2021-10-31T00:55:07Z,42.805,6.029,13.3011,4.60027,2470.46,2021-10-31T02:56:31Z
2021-10-31T00:58:10Z,42.805,6.029,13.3026,4.60028,2470.437,2021-10-31T02:59:34Z
2021-10-31T01:01:13Z,42.805,6.029,13.3025,4.60029,2470.474,2021-10-31T03:02:38Z
2021-10-31T01:04:16Z,42.805,6.029,13.3028,4.60025,2470.45,2021-10-31T03:05:41Z
2021-10-31T01:07:19Z,42.805,6.029,13.3039,4.60053,2470.474,2021-10-31T03:08:44Z
2021-10-31T01:10:22Z,42.805,6.029,13.3033,4.60035,2470.446,2021-10-31T03:11:47Z
2021-10-31T01:13:25Z,42.805,6.029,13.3037,4.60061,2470.483,2021-10-31T03:14:50Z
2021-10-31T01:16:28Z,42.805,6.029,13.3014,4.60055,2470.437,2021-10-31T03:17:53Z
2021-10-31T01:19:32Z,42.805,6.029,13.3035,4.60047,2470.45,2021-10-31T03:20:56Z
2021-10-31T01:22:35Z,42.805,6.029,13.3051,4.60029,2470.46,2021-10-31T03:23:59Z
2021-10-31T01:25:38Z,42.805,6.029,13.3015,4.60062,2470.497,2021-10-31T03:27:03Z
2021-10-31T01:28:41Z,42.805,6.029,13.3028,4.60049,2470.46,2021-10-31T03:30:06Z
2021-10-31T01:31:44Z,42.805,6.029,13.3029,4.60029,2470.497,2021-10-31T03:33:09Z
2021-10-31T01:34:47Z,42.805,6.029,13.3026,4.60033,2470.46,2021-10-31T03:36:12Z
2021-10-31T01:37:50Z,42.805,6.029,13.3016,4.60046,2470.46,2021-10-31T03:39:15Z
2021-10-31T01:40:53Z,42.805,6.029,13.3006,4.60056,2470.46,2021-10-31T03:42:18Z
2021-10-31T01:43:57Z,42.805,6.029,13.3011,4.60064,2470.423,2021-10-31T03:45:21Z
2021-10-31T01:47:00Z,42.805,6.029,13.3035,4.60055,2470.45,2021-10-31T03:48:24Z
2021-10-31T01:50:03Z,42.805,6.029,13.3026,4.60036,2470.483,2021-10-31T03:51:28Z
2021-10-31T01:53:06Z,42.805,6.029,13.3024,4.60062,2470.497,2021-10-31T03:54:31Z
2021-10-31T01:56:09Z,42.805,6.029,13.3043,4.60050,2470.483,2021-10-31T03:57:34Z
2021-10-31T01:59:12Z,42.805,6.029,13.3030,4.60058,2470.497,2021-10-31T04:00:37Z
2021-10-31T02:02:15Z,42.805,6.029,13.3051,4.60062,2470.474,2021-10-31T04:03:40Z
2021-10-31T02:05:18Z,42.805,6.029,13.3030,4.60096,2470.483,2021-10-31T04:06:43Z
2021-10-31T02:08:22Z,42.805,6.029,13.3034,4.60064,2470.474,2021-10-31T04:09:46Z
2021-10-31T02:11:25Z,42.805,6.029,13.3020,4.60053,2470.46,2021-10-31T04:12:49Z
2021-10-31T02:14:28Z,42.805,6.029,13.3046,4.60072,2470.507,2021-10-31T04:15:53Z
2021-10-31T02:17:31Z,42.805,6.029,13.3021,4.60036,2470.507,2021-10-31T04:18:56Z
2021-10-31T02:20:34Z,42.805,6.029,13.3044,4.60050,2470.474,2021-10-31T04:21:59Z
2021-10-31T02:23:37Z,42.805,6.029,13.3014,4.60046,2470.544,2021-10-31T04:25:02Z
2021-10-31T02:26:40Z,42.805,6.029,13.3018,4.60038,2470.46,2021-10-31T04:28:05Z
2021-10-31T02:29:43Z,42.805,6.029,13.3014,4.60059,2470.52,2021-10-31T04:31:08Z
2021-10-31T02:32:47Z,42.805,6.029,13.3024,4.60032,2470.497,2021-10-31T04:34:11Z
2021-10-31T02:35:50Z,42.805,6.029,13.3027,4.60031,2470.483,2021-10-31T04:37:14Z
2021-10-31T02:38:53Z,42.805,6.029,13.3004,4.60050,2470.52,2021-10-31T04:40:18Z
2021-10-31T02:41:56Z,42.805,6.029,13.3008,4.60035,2470.544,2021-10-31T04:43:21Z
2021-10-31T02:44:59Z,42.805,6.029,13.3009,4.60042,2470.483,2021-10-31T04:46:24Z
2021-10-31T02:48:02Z,42.805,6.029,13.3017,4.60043,2470.497,2021-10-31T04:49:27Z
2021-10-31T02:51:05Z,42.805,6.029,13.3014,4.60037,2470.483,2021-10-31T04:52:30Z
2021-10-31T02:54:08Z,42.805,6.029,13.3006,4.60032,2470.483,2021-10-31T04:55:33Z
2021-10-31T02:57:12Z,42.805,6.029,13.3011,4.60031,2470.544,2021-10-31T04:58:36Z
2021-10-31T03:00:15Z,42.805,6.029,13.3019,4.60060,2470.507,2021-10-31T05:01:39Z
2021-10-31T03:03:18Z,42.805,6.029,13.3011,4.60041,2470.483,2021-10-31T05:04:43Z
2021-10-31T03:06:21Z,42.805,6.029,13.3021,4.60049,2470.52,2021-10-31T05:07:46Z
2021-10-31T03:09:24Z,42.805,6.029,13.3031,4.60046,2470.544,2021-10-31T05:10:49Z
2021-10-31T03:12:27Z,42.805,6.029,13.3026,4.60060,2470.46,2021-10-31T05:13:52Z
2021-10-31T03:15:30Z,42.805,6.029,13.3039,4.60033,2470.483,2021-10-31T05:16:55Z
2021-10-31T03:18:33Z,42.805,6.029,13.3029,4.60036,2470.52,2021-10-31T05:19:58Z
2021-10-31T03:21:36Z,42.805,6.029,13.3032,4.60055,2470.483,2021-10-31T05:23:01Z
2021-10-31T03:24:40Z,42.805,6.029,13.3011,4.60046,2470.483,2021-10-31T05:26:04Z
2021-10-31T03:27:43Z,42.805,6.029,13.3014,4.60042,2470.52,2021-10-31T05:29:07Z
2021-10-31T03:30:46Z,42.805,6.029,13.3000,4.60055,2470.507,2021-10-31T05:32:11Z
2021-10-31T03:33:49Z,42.805,6.029,13.3033,4.60055,2470.497,2021-10-31T05:35:14Z
2021-10-31T03:36:52Z,42.805,6.029,13.3019,4.60031,2470.497,2021-10-31T05:38:17Z
2021-10-31T03:39:55Z,42.805,6.029,13.3002,4.60030,2470.52,2021-10-31T05:41:20Z
2021-10-31T03:42:58Z,42.805,6.029,13.3010,4.60028,2470.507,2021-10-31T05:44:23Z
2021-10-31T03:46:01Z,42.805,6.029,13.3018,4.60039,2470.544,2021-10-31T05:47:26Z
2021-10-31T03:49:05Z,42.805,6.029,13.3028,4.60029,2470.497,2021-10-31T05:50:29Z
2021-10-31T03:52:08Z,42.805,6.029,13.3026,4.60032,2470.52,2021-10-31T05:53:32Z
2021-10-31T03:55:11Z,42.805,6.029,13.3026,4.60039,2470.483,2021-10-31T05:56:36Z
2021-10-31T03:58:14Z,42.805,6.029,13.3025,4.60038,2470.474,2021-10-31T05:59:39Z
2021-10-31T04:01:17Z,42.805,6.029,13.3019,4.60054,2470.46,2021-10-31T06:02:42Z
2021-10-31T04:04:20Z,42.805,6.029,13.3046,4.60039,2470.483,2021-10-31T06:05:45Z
2021-10-31T04:07:23Z,42.805,6.029,13.3034,4.60043,2470.483,2021-10-31T06:08:48Z
2021-10-31T04:10:26Z,42.805,6.029,13.3024,4.60036,2470.507,2021-10-31T06:11:51Z
2021-10-31T04:13:30Z,42.805,6.029,13.3037,4.60036,2470.46,2021-10-31T06:14:54Z
2021-10-31T04:16:33Z,42.805,6.029,13.3033,4.60044,2470.46,2021-10-31T06:17:57Z
2021-10-31T04:19:36Z,42.805,6.029,13.3027,4.60042,2470.46,2021-10-31T06:21:01Z
2021-10-31T04:22:39Z,42.805,6.029,13.3030,4.60049,2470.483,2021-10-31T06:24:04Z
2021-10-31T04:25:42Z,42.805,6.029,13.3027,4.60053,2470.483,2021-10-31T06:27:07Z
2021-10-31T04:28:45Z,42.805,6.029,13.3030,4.60039,2470.483,2021-10-31T06:30:10Z
2021-10-31T04:31:48Z,42.805,6.029,13.3027,4.60034,2470.507,2021-10-31T06:33:13Z
2021-10-31T04:34:51Z,42.805,6.029,13.3046,4.60052,2470.497,2021-10-31T06:36:16Z
2021-10-31T04:37:55Z,42.805,6.029,13.3039,4.60039,2470.497,2021-10-31T06:39:19Z
2021-10-31T04:40:58Z,42.805,6.029,13.3035,4.60028,2470.474,2021-10-31T06:42:22Z
2021-10-31T04:44:01Z,42.805,6.029,13.3033,4.60047,2470.483,2021-10-31T06:45:26Z
2021-10-31T04:47:04Z,42.805,6.029,13.3037,4.60037,2470.474,2021-10-31T06:48:29Z
2021-10-31T04:50:07Z,42.805,6.029,13.3018,4.60053,2470.46,2021-10-31T06:51:32Z
2021-10-31T04:53:10Z,42.805,6.029,13.3024,4.60045,2470.483,2021-10-31T06:54:35Z
2021-10-31T04:56:13Z,42.805,6.029,13.3015,4.60031,2470.497,2021-10-31T06:57:38Z
2021-10-31T04:59:16Z,42.805,6.029,13.3024,4.60042,2470.497,2021-10-31T07:00:41Z
2021-10-31T05:02:20Z,42.805,6.029,13.3020,4.60036,2470.483,2021-10-31T07:03:44Z
2021-10-31T05:05:23Z,42.805,6.029,13.3025,4.60039,2470.52,2021-10-31T07:06:47Z
2021-10-31T05:08:26Z,42.805,6.029,13.3032,4.60038,2470.46,2021-10-31T07:09:51Z
2021-10-31T05:11:29Z,42.805,6.029,13.3031,4.60036,2470.497,2021-10-31T07:12:54Z
2021-10-31T05:14:32Z,42.805,6.029,13.3025,4.60059,2470.46,2021-10-31T07:15:57Z
2021-10-31T05:17:35Z,42.805,6.029,13.3035,4.60033,2470.497,2021-10-31T07:19:00Z
2021-10-31T05:20:38Z,42.805,6.029,13.3015,4.60044,2470.46,2021-10-31T07:22:03Z
2021-10-31T05:23:41Z,42.805,6.029,13.3032,4.60044,2470.507,2021-10-31T07:25:06Z
2021-10-31T05:26:44Z,42.805,6.029,13.3022,4.60050,2470.497,2021-10-31T07:28:09Z
2021-10-31T05:29:48Z,42.805,6.029,13.3038,4.60025,2470.474,2021-10-31T07:31:12Z
2021-10-31T05:32:51Z,42.805,6.029,13.3034,4.60043,2470.483,2021-10-31T07:34:16Z
2021-10-31T05:35:54Z,42.805,6.029,13.3029,4.60038,2470.46,2021-10-31T07:37:19Z
2021-10-31T05:38:57Z,42.805,6.029,13.3043,4.60045,2470.497,2021-10-31T07:40:22Z
2021-10-31T05:42:00Z,42.805,6.029,13.3018,4.60059,2470.497,2021-10-31T07:43:25Z
2021-10-31T05:45:03Z,42.805,6.029,13.3034,4.60050,2470.474,2021-10-31T07:46:28Z
2021-10-31T05:48:06Z,42.805,6.029,13.3040,4.60046,2470.474,2021-10-31T07:49:31Z
2021-10-31T05:51:09Z,42.805,6.029,13.3035,4.60049,2470.45,2021-10-31T07:52:34Z
2021-10-31T05:54:13Z,42.805,6.029,13.3047,4.60063,2470.474,2021-10-31T07:55:37Z
2021-10-31T05:57:16Z,42.805,6.029,13.3040,4.60052,2470.483,2021-10-31T07:58:40Z
2021-10-31T06:00:19Z,42.805,6.029,13.3050,4.60057,2470.483,2021-10-31T08:01:44Z
2021-10-31T06:03:22Z,42.805,6.029,13.3035,4.60056,2470.474,2021-10-31T08:04:47Z
2021-10-31T06:06:25Z,42.805,6.029,13.3027,4.60043,2470.46,2021-10-31T08:07:50Z
2021-10-31T06:09:28Z,42.805,6.029,13.3022,4.60039,2470.474,2021-10-31T08:10:53Z
2021-10-31T06:12:31Z,42.805,6.029,13.3029,4.60048,2470.474,2021-10-31T08:13:56Z
2021-10-31T06:15:34Z,42.805,6.029,13.3024,4.60046,2470.474,2021-10-31T08:16:59Z
2021-10-31T06:18:38Z,42.805,6.029,13.3039,4.60060,2470.507,2021-10-31T08:20:02Z
2021-10-31T06:21:41Z,42.805,6.029,13.3042,4.60054,2470.45,2021-10-31T08:23:05Z
2021-10-31T06:24:44Z,42.805,6.029,13.3041,4.60054,2470.45,2021-10-31T08:26:09Z
2021-10-31T06:27:47Z,42.805,6.029,13.3036,4.60058,2470.46,2021-10-31T08:29:12Z
2021-10-31T06:30:50Z,42.805,6.029,13.3039,4.60042,2470.507,2021-10-31T08:32:15Z
2021-10-31T06:33:53Z,42.805,6.029,13.3025,4.60037,2470.497,2021-10-31T08:35:18Z
2021-10-31T06:36:56Z,42.805,6.029,13.3014,4.60039,2470.46,2021-10-31T08:38:21Z
2021-10-31T06:39:59Z,42.805,6.029,13.3024,4.60042,2470.474,2021-10-31T08:41:24Z
2021-10-31T06:43:03Z,42.805,6.029,13.3029,4.60040,2470.46,2021-10-31T08:44:27Z
2021-10-31T06:46:06Z,42.805,6.029,13.3026,4.60062,2470.497,2021-10-31T08:47:30Z
2021-10-31T06:49:09Z,42.805,6.029,13.3023,4.60057,2470.46,2021-10-31T08:50:34Z
2021-10-31T06:52:12Z,42.805,6.029,13.3038,4.60044,2470.483,2021-10-31T08:53:37Z
2021-10-31T06:55:15Z,42.805,6.029,13.3046,4.60081,2470.427,2021-10-31T08:56:40Z
2021-10-31T06:58:18Z,42.805,6.029,13.3022,4.60056,2470.46,2021-10-31T08:59:43Z
2021-10-31T07:01:21Z,42.805,6.029,13.3023,4.60039,2470.437,2021-10-31T09:02:46Z
2021-10-31T07:04:24Z,42.805,6.029,13.3031,4.60036,2470.446,2021-10-31T09:05:49Z
2021-10-31T07:07:28Z,42.805,6.029,13.3034,4.60046,2470.474,2021-10-31T09:08:52Z
2021-10-31T07:10:31Z,42.805,6.029,13.3043,4.60064,2470.404,2021-10-31T09:11:55Z
2021-10-31T07:13:34Z,42.805,6.029,13.3024,4.60041,2470.413,2021-10-31T09:14:59Z
2021-10-31T07:16:37Z,42.805,6.029,13.3040,4.60050,2470.45,2021-10-31T09:18:02Z
2021-10-31T07:19:40Z,42.805,6.029,13.3016,4.60036,2470.46,2021-10-31T09:21:05Z
2021-10-31T07:22:43Z,42.805,6.029,13.3029,4.60046,2470.474,2021-10-31T09:24:08Z
2021-10-31T07:25:46Z,42.805,6.029,13.3039,4.60055,2470.45,2021-10-31T09:27:11Z
2021-10-31T07:28:49Z,42.805,6.029,13.3030,4.60064,2470.46,2021-10-31T09:30:14Z
2021-10-31T07:31:53Z,42.805,6.029,13.3031,4.60064,2470.45,2021-10-31T09:33:17Z
2021-10-31T07:34:56Z,42.805,6.029,13.3058,4.60064,2470.46,2021-10-31T09:36:20Z
2021-10-31T07:37:59Z,42.805,6.029,13.3048,4.60062,2470.427,2021-10-31T09:39:24Z
2021-10-31T07:41:02Z,42.805,6.029,13.3051,4.60063,2470.45,2021-10-31T09:42:27Z
2021-10-31T07:44:05Z,42.805,6.029,13.3069,4.60061,2470.427,2021-10-31T09:45:30Z
2021-10-31T07:47:08Z,42.805,6.029,13.3030,4.60081,2470.45,2021-10-31T09:48:33Z
2021-10-31T07:50:11Z,42.805,6.029,13.3025,4.60054,2470.413,2021-10-31T09:51:36Z
2021-10-31T07:53:14Z,42.805,6.029,13.3030,4.60072,2470.437,2021-10-31T09:54:39Z
2021-10-31T07:56:18Z,42.805,6.029,13.3039,4.60080,2470.437,2021-10-31T09:57:42Z
2021-10-31T07:59:21Z,42.805,6.029,13.3013,4.60068,2470.427,2021-10-31T10:00:45Z
2021-10-31T08:02:24Z,42.805,6.029,13.3026,4.60059,2470.413,2021-10-31T10:03:49Z
2021-10-31T08:05:27Z,42.805,6.029,13.3058,4.60039,2470.497,2021-10-31T10:06:52Z
2021-10-31T08:08:30Z,42.805,6.029,13.3012,4.60045,2470.427,2021-10-31T10:09:55Z
2021-10-31T08:11:33Z,42.805,6.029,13.3005,4.60091,2470.45,2021-10-31T10:12:58Z
2021-10-31T08:14:36Z,42.805,6.029,13.3037,4.60064,2470.46,2021-10-31T10:16:01Z
2021-10-31T08:17:39Z,42.805,6.029,13.3067,4.60069,2470.45,2021-10-31T10:19:04Z
2021-10-31T08:20:43Z,42.805,6.029,13.3033,4.60064,2470.437,2021-10-31T10:22:07Z
2021-10-31T08:23:46Z,42.805,6.029,13.3036,4.60059,2470.413,2021-10-31T10:25:10Z
2021-10-31T08:26:49Z,42.805,6.029,13.3018,4.60066,2470.45,2021-10-31T10:28:14Z
2021-10-31T08:29:52Z,42.805,6.029,13.3026,4.60036,2470.45,2021-10-31T10:31:17Z
2021-10-31T08:32:55Z,42.805,6.029,13.3022,4.60057,2470.45,2021-10-31T10:34:20Z
2021-10-31T08:35:58Z,42.805,6.029,13.3025,4.60092,2470.427,2021-10-31T10:37:23Z
2021-10-31T08:39:01Z,42.805,6.029,13.3012,4.60053,2470.45,2021-10-31T10:40:26Z
2021-10-31T08:42:04Z,42.805,6.029,13.3029,4.60034,2470.427,2021-10-31T10:43:29Z
2021-10-31T08:45:08Z,42.805,6.029,13.3039,4.60047,2470.46,2021-10-31T10:46:32Z
2021-10-31T08:48:11Z,42.805,6.029,13.3036,4.60049,2470.427,2021-10-31T10:49:35Z
2021-10-31T08:51:14Z,42.805,6.029,13.3025,4.60064,2470.437,2021-10-31T10:52:39Z
2021-10-31T08:54:17Z,42.805,6.029,13.3048,4.60039,2470.413,2021-10-31T10:55:42Z
2021-10-31T08:57:20Z,42.805,6.029,13.3031,4.60038,2470.404,2021-10-31T10:58:45Z
2021-10-31T09:00:23Z,42.805,6.029,13.3037,4.60047,2470.427,2021-10-31T11:01:48Z
2021-10-31T09:03:26Z,42.805,6.029,13.3041,4.60053,2470.46,2021-10-31T11:04:51Z
2021-10-31T09:06:29Z,42.805,6.029,13.3044,4.60046,2470.45,2021-10-31T11:07:54Z
2021-10-31T09:09:33Z,42.805,6.029,13.3036,4.60044,2470.45,2021-10-31T11:10:57Z
2021-10-31T09:12:36Z,42.805,6.029,13.3042,4.60036,2470.437,2021-10-31T11:14:00Z
2021-10-31T09:15:39Z,42.805,6.029,13.3038,4.60047,2470.39,2021-10-31T11:17:04Z
2021-10-31T09:18:42Z,42.805,6.029,13.3034,4.60042,2470.427,2021-10-31T11:20:07Z
2021-10-31T09:21:45Z,42.805,6.029,13.3020,4.60046,2470.39,2021-10-31T11:23:10Z
2021-10-31T09:24:48Z,42.805,6.029,13.3032,4.60068,2470.427,2021-10-31T11:26:13Z
2021-10-31T09:27:51Z,42.805,6.029,13.3059,4.60046,2470.413,2021-10-31T11:29:16Z
2021-10-31T09:30:54Z,42.805,6.029,13.3057,4.60061,2470.404,2021-10-31T11:32:19Z
2021-10-31T09:33:58Z,42.805,6.029,13.3031,4.60044,2470.413,2021-10-31T11:35:22Z
2021-10-31T09:37:01Z,42.805,6.029,13.3063,4.60052,2470.404,2021-10-31T11:38:25Z
2021-10-31T09:40:04Z,42.805,6.029,13.3049,4.60053,2470.427,2021-10-31T11:41:29Z
2021-10-31T09:43:07Z,42.805,6.029,13.3034,4.60051,2470.45,2021-10-31T11:44:32Z
2021-10-31T09:46:10Z,42.805,6.029,13.3056,4.60066,2470.45,2021-10-31T11:47:35Z
2021-10-31T09:49:13Z,42.805,6.029,13.3033,4.60049,2470.413,2021-10-31T11:50:38Z
2021-10-31T09:52:16Z,42.805,6.029,13.3054,4.60049,2470.437,2021-10-31T11:53:41Z
2021-10-31T09:55:20Z,42.805,6.029,13.3049,4.60072,2470.39,2021-10-31T11:56:44Z
2021-10-31T09:58:23Z,42.805,6.029,13.3036,4.60046,2470.437,2021-10-31T11:59:47Z
2021-10-31T10:01:26Z,42.805,6.029,13.3036,4.60045,2470.413,2021-10-31T12:02:51Z
2021-10-31T10:04:29Z,42.805,6.029,13.3025,4.60055,2470.413,2021-10-31T12:05:54Z
2021-10-31T10:07:32Z,42.805,6.029,13.3023,4.60041,2470.413,2021-10-31T12:08:57Z
2021-10-31T10:10:35Z,42.805,6.029,13.3029,4.60046,2470.437,2021-10-31T12:12:00Z
2021-10-31T10:13:38Z,42.805,6.029,13.3039,4.60059,2470.46,2021-10-31T12:15:03Z
2021-10-31T10:16:41Z,42.805,6.029,13.3035,4.60054,2470.45,2021-10-31T12:18:06Z
2021-10-31T10:19:45Z,42.805,6.029,13.3026,4.60062,2470.413,2021-10-31T12:21:09Z
2021-10-31T10:22:48Z,42.805,6.029,13.3031,4.60051,2470.45,2021-10-31T12:24:12Z
2021-10-31T10:25:51Z,42.805,6.029,13.3018,4.60062,2470.437,2021-10-31T12:27:16Z
2021-10-31T10:28:54Z,42.805,6.029,13.3041,4.60051,2470.404,2021-10-31T12:30:19Z
2021-10-31T10:31:57Z,42.805,6.029,13.3024,4.60052,2470.427,2021-10-31T12:33:22Z
2021-10-31T10:35:00Z,42.805,6.029,13.3051,4.60040,2470.474,2021-10-31T12:36:25Z
2021-10-31T10:38:03Z,42.805,6.029,13.3022,4.60057,2470.413,2021-10-31T12:39:28Z
2021-10-31T10:41:06Z,42.805,6.029,13.3034,4.60032,2470.437,2021-10-31T12:42:31Z
2021-10-31T10:44:10Z,42.805,6.029,13.3027,4.60066,2470.45,2021-10-31T12:45:34Z
2021-10-31T10:47:13Z,42.805,6.029,13.3063,4.60033,2470.45,2021-10-31T12:48:37Z
2021-10-31T10:50:16Z,42.805,6.029,13.3047,4.60073,2470.437,2021-10-31T12:51:41Z
2021-10-31T10:53:19Z,42.805,6.029,13.3037,4.60044,2470.45,2021-10-31T12:54:44Z
2021-10-31T10:56:22Z,42.805,6.029,13.3014,4.60028,2470.413,2021-10-31T12:57:47Z
2021-10-31T10:59:25Z,42.805,6.029,13.3021,4.60034,2470.39,2021-10-31T13:00:50Z
2021-10-31T11:02:28Z,42.805,6.029,13.3045,4.60039,2470.437,2021-10-31T13:03:53Z
2021-10-31T11:05:31Z,42.805,6.029,13.3027,4.60051,2470.437,2021-10-31T13:06:56Z
2021-10-31T11:08:35Z,42.805,6.029,13.3015,4.60041,2470.437,2021-10-31T13:09:59Z
2021-10-31T11:11:38Z,42.805,6.029,13.3023,4.60046,2470.427,2021-10-31T13:13:02Z
2021-10-31T11:14:41Z,42.805,6.029,13.3024,4.60042,2470.45,2021-10-31T13:16:06Z
2021-10-31T11:17:44Z,42.805,6.029,13.3015,4.60054,2470.437,2021-10-31T13:19:09Z
2021-10-31T11:20:47Z,42.805,6.029,13.3018,4.60037,2470.413,2021-10-31T13:22:12Z
2021-10-31T11:23:50Z,42.805,6.029,13.3018,4.60041,2470.45,2021-10-31T13:25:15Z
2021-10-31T11:26:53Z,42.805,6.029,13.3039,4.60076,2470.413,2021-10-31T13:28:18Z
2021-10-31T11:29:56Z,42.805,6.029,13.3037,4.60051,2470.437,2021-10-31T13:31:21Z
2021-10-31T11:33:00Z,42.805,6.029,13.3037,4.60052,2470.404,2021-10-31T13:34:24Z
2021-10-31T11:36:03Z,42.805,6.029,13.3036,4.60051,2470.45,2021-10-31T13:37:27Z
2021-10-31T11:39:06Z,42.805,6.029,13.3023,4.60054,2470.437,2021-10-31T13:40:31Z
2021-10-31T11:42:09Z,42.805,6.029,13.3029,4.60044,2470.427,2021-10-31T13:43:34Z
2021-10-31T11:45:12Z,42.805,6.029,13.3026,4.60046,2470.413,2021-10-31T13:46:37Z
2021-10-31T11:48:15Z,42.805,6.029,13.3019,4.60046,2470.413,2021-10-31T13:49:40Z
2021-10-31T11:51:18Z,42.805,6.029,13.3036,4.60050,2470.437,2021-10-31T13:52:43Z
2021-10-31T11:54:21Z,42.805,6.029,13.3037,4.60045,2470.437,2021-10-31T13:55:46Z
2021-10-31T11:57:25Z,42.805,6.029,13.3072,4.60045,2470.427,2021-10-31T13:58:49Z
2021-10-31T12:00:28Z,42.805,6.029,13.3046,4.60041,2470.45,2021-10-31T14:01:53Z
2021-10-31T12:03:31Z,42.805,6.029,13.3038,4.60053,2470.437,2021-10-31T14:04:56Z
2021-10-31T12:06:34Z,42.805,6.029,13.3038,4.60049,2470.45,2021-10-31T14:07:59Z
2021-10-31T12:09:37Z,42.805,6.029,13.3028,4.60047,2470.45,2021-10-31T14:11:02Z
2021-10-31T12:12:40Z,42.805,6.029,13.3026,4.60050,2470.474,2021-10-31T14:14:05Z
2021-10-31T12:15:43Z,42.805,6.029,13.3044,4.60042,2470.474,2021-10-31T14:17:08Z
2021-10-31T12:18:46Z,42.805,6.029,13.3031,4.60049,2470.446,2021-10-31T14:20:11Z
2021-10-31T12:21:50Z,42.805,6.029,13.3032,4.60050,2470.474,2021-10-31T14:23:14Z
2021-10-31T12:24:53Z,42.805,6.029,13.3036,4.60043,2470.437,2021-10-31T14:26:17Z
2021-10-31T12:27:56Z,42.805,6.029,13.3017,4.60038,2470.46,2021-10-31T14:29:21Z
2021-10-31T12:30:59Z,42.805,6.029,13.3028,4.60034,2470.497,2021-10-31T14:32:24Z
2021-10-31T12:34:02Z,42.805,6.029,13.3019,4.60052,2470.46,2021-10-31T14:35:27Z
2021-10-31T12:37:05Z,42.805,6.029,13.3019,4.60035,2470.413,2021-10-31T14:38:30Z
2021-10-31T12:40:08Z,42.805,6.029,13.3035,4.60044,2470.474,2021-10-31T14:41:33Z
2021-10-31T12:43:12Z,42.805,6.029,13.3024,4.60049,2470.483,2021-10-31T14:44:36Z
2021-10-31T12:46:15Z,42.805,6.029,13.3022,4.60037,2470.497,2021-10-31T14:47:39Z
2021-10-31T12:49:18Z,42.805,6.029,13.3033,4.60043,2470.497,2021-10-31T14:50:43Z
2021-10-31T12:52:21Z,42.805,6.029,13.3032,4.60040,2470.52,2021-10-31T14:53:46Z
2021-10-31T12:55:24Z,42.805,6.029,13.3023,4.60043,2470.497,2021-10-31T14:56:49Z
2021-10-31T12:58:27Z,42.805,6.029,13.3037,4.60068,2470.52,2021-10-31T14:59:52Z
2021-10-31T13:01:30Z,42.805,6.029,13.3043,4.60051,2470.497,2021-10-31T15:02:55Z
2021-10-31T13:04:33Z,42.805,6.029,13.3034,4.60043,2470.483,2021-10-31T15:05:58Z
2021-10-31T13:07:37Z,42.805,6.029,13.3026,4.60062,2470.52,2021-10-31T15:09:01Z
2021-10-31T13:10:40Z,42.805,6.029,13.3027,4.60042,2470.483,2021-10-31T15:12:04Z
2021-10-31T13:13:43Z,42.805,6.029,13.3034,4.60036,2470.52,2021-10-31T15:15:08Z
2021-10-31T13:16:46Z,42.805,6.029,13.3019,4.60039,2470.483,2021-10-31T15:18:11Z
2021-10-31T13:19:49Z,42.805,6.029,13.3037,4.60045,2470.507,2021-10-31T15:21:14Z
2021-10-31T13:22:52Z,42.805,6.029,13.3039,4.60042,2470.483,2021-10-31T15:24:17Z
2021-10-31T13:25:55Z,42.805,6.029,13.3026,4.60027,2470.507,2021-10-31T15:27:20Z
2021-10-31T13:28:58Z,42.805,6.029,13.3028,4.60037,2470.507,2021-10-31T15:30:23Z
2021-10-31T13:32:02Z,42.805,6.029,13.3036,4.60049,2470.553,2021-10-31T15:33:26Z
2021-10-31T13:35:05Z,42.805,6.029,13.3019,4.60064,2470.52,2021-10-31T15:36:29Z
2021-10-31T13:38:08Z,42.805,6.029,13.3029,4.60043,2470.507,2021-10-31T15:39:33Z
2021-10-31T13:41:11Z,42.805,6.029,13.3029,4.60042,2470.558,2021-10-31T15:42:36Z
2021-10-31T13:44:14Z,42.805,6.029,13.3019,4.60023,2470.52,2021-10-31T15:45:39Z
2021-10-31T13:47:17Z,42.805,6.029,13.3021,4.60033,2470.53,2021-10-31T15:48:42Z
2021-10-31T13:50:20Z,42.805,6.029,13.3008,4.60028,2470.544,2021-10-31T15:51:45Z
2021-10-31T13:53:23Z,42.805,6.029,13.3029,4.60038,2470.483,2021-10-31T15:54:48Z
2021-10-31T13:56:27Z,42.805,6.029,13.3032,4.60037,2470.507,2021-10-31T15:57:51Z
2021-10-31T13:59:30Z,42.805,6.029,13.3015,4.60064,2470.53,2021-10-31T16:00:54Z
2021-10-31T14:02:33Z,42.805,6.029,13.3005,4.60043,2470.544,2021-10-31T16:03:58Z
2021-10-31T14:05:36Z,42.805,6.029,13.3033,4.60034,2470.553,2021-10-31T16:07:01Z
2021-10-31T14:08:39Z,42.805,6.029,13.3025,4.60026,2470.507,2021-10-31T16:10:04Z
2021-10-31T14:11:42Z,42.805,6.029,13.3024,4.60037,2470.567,2021-10-31T16:13:07Z
2021-10-31T14:14:45Z,42.805,6.029,13.3026,4.60038,2470.52,2021-10-31T16:16:10Z
2021-10-31T14:17:48Z,42.805,6.029,13.3024,4.60039,2470.553,2021-10-31T16:19:13Z
2021-10-31T14:20:52Z,42.805,6.029,13.3031,4.60041,2470.544,2021-10-31T16:22:16Z
2021-10-31T14:23:55Z,42.805,6.029,13.3034,4.60047,2470.567,2021-10-31T16:25:20Z
2021-10-31T14:26:58Z,42.805,6.029,13.3032,4.60045,2470.544,2021-10-31T16:28:23Z
2021-10-31T14:30:01Z,42.805,6.029,13.3037,4.60052,2470.544,2021-10-31T16:31:26Z
2021-10-31T14:33:04Z,42.805,6.029,13.3029,4.60048,2470.567,2021-10-31T16:34:29Z
2021-10-31T14:36:07Z,42.805,6.029,13.3042,4.60062,2470.567,2021-10-31T16:37:32Z
2021-10-31T14:39:10Z,42.805,6.029,13.3027,4.60042,2470.567,2021-10-31T16:40:35Z
2021-10-31T14:42:13Z,42.805,6.029,13.3028,4.60037,2470.553,2021-10-31T16:43:38Z
2021-10-31T14:45:17Z,42.805,6.029,13.3024,4.60032,2470.544,2021-10-31T16:46:41Z
2021-10-31T14:48:20Z,42.805,6.029,13.3019,4.60049,2470.591,2021-10-31T16:49:45Z
2021-10-31T14:51:23Z,42.805,6.029,13.3021,4.60039,2470.53,2021-10-31T16:52:48Z
2021-10-31T14:54:26Z,42.805,6.029,13.3020,4.60049,2470.567,2021-10-31T16:55:51Z
2021-10-31T14:57:29Z,42.805,6.029,13.3025,4.60049,2470.53,2021-10-31T16:58:54Z
2021-10-31T15:00:32Z,42.805,6.029,13.3024,4.60049,2470.544,2021-10-31T17:01:57Z